{"data":{"norad_id":65936,"intl_designator":"2025-225AC","name":"STARLINK-35161","alt_names":[],"object_type":"PAYLOAD","status":"ACTIVE","operator":null,"country":"US","launch_date":"2025-10-08","launch_site_code":"AFWTR","launch_vehicle":null,"mission":null,"orbit_class":"UNKNOWN","rcs_meters":null,"size_class":null,"mass_kg":null,"dimensions":null,"purposes":["comms"],"wikipedia_slug":null,"has_3d_model":false,"image_url":null,"decayed_at":null,"tle_current":{"epoch":"2026-05-24T10:47:01.106304Z","epoch_age_seconds":119724,"freshness":"FRESH","line1":"1 65936U 25225AC  26144.44931836  .00006499  00000+0  23137-3 0  9996","line2":"2 65936  53.1570 174.0366 0001096  82.1783 277.9342 15.30199683 35113","mean_motion":15.30199683,"eccentricity":0.0001096,"inclination_deg":53.157,"raan_deg":174.0366,"arg_perigee_deg":82.1783,"mean_anomaly_deg":277.9342,"bstar":0.00023137,"rev_number":3511,"period_min":94.105365201543,"perigee_km":474.4648884338,"apogee_km":475.96714341489,"semimajor_km":6853.3530159243,"source":"CELESTRAK","updated_at":"2026-05-25T13:38:20.991833Z"}}}